| time (UTC) | temp F | wind direction | speed knots | gust knots | rain 1hr in | rain 24hr in | rain mn in | humidity % | barometer mb |
| 20260509143506 | 58 | 156 | 2.6 | 8.7 | 0.00 | 0.20 | 0.20 | 76 | 1009.4 |
| 20260509143006 | 58 | 153 | 3.5 | 5.2 | 0.00 | 0.20 | 0.20 | 76 | 1009.6 |
| 20260509142506 | 57 | 150 | 2.6 | 4.3 | 0.02 | 0.20 | 0.20 | 76 | 1009.7 |
| 20260509142006 | 57 | 149 | 2.6 | 7.0 | 0.03 | 0.20 | 0.20 | 78 | 1009.7 |
| 20260509141506 | 57 | 147 | 2.6 | 7.8 | 0.04 | 0.20 | 0.20 | 78 | 1010.0 |
| 20260509141006 | 56 | 134 | 2.6 | 6.1 | 0.06 | 0.20 | 0.20 | 80 | 1010.0 |
| 20260509140506 | 55 | 88 | 1.7 | 2.6 | 0.09 | 0.20 | 0.20 | 85 | 1010.1 |
| 20260509135507 | 54 | 114 | 1.7 | 4.3 | 0.13 | 0.20 | 0.20 | 85 | 1010.0 |
| 20260509135006 | 54 | 118 | 1.7 | 4.3 | 0.14 | 0.20 | 0.20 | 87 | 1010.2 |
| 20260509134506 | 54 | 156 | 0.9 | 4.3 | 0.16 | 0.20 | 0.20 | 88 | 1010.3 |
| 20260509134006 | 53 | 196 | 0.0 | 4.3 | 0.16 | 0.20 | 0.20 | 88 | 1010.3 |
| 20260509133506 | 53 | 172 | 2.6 | 5.2 | 0.16 | 0.20 | 0.20 | 87 | 1010.7 |
| 20260509133006 | 53 | 187 | 5.2 | 7.0 | 0.16 | 0.20 | 0.20 | 87 | 1010.7 |
| 20260509132506 | 54 | 197 | 2.6 | 7.8 | 0.13 | 0.17 | 0.17 | 90 | 1010.7 |
| 20260509132006 | 54 | 246 | 6.1 | 10.4 | 0.13 | 0.17 | 0.17 | 89 | 1010.7 |
| 20260509131506 | 54 | 262 | 4.3 | 8.7 | 0.12 | 0.16 | 0.16 | 91 | 1010.7 |
| 20260509131006 | 54 | 287 | 4.3 | 8.7 | 0.09 | 0.13 | 0.13 | 90 | 1010.8 |
| 20260509130506 | 54 | 283 | 8.7 | 13.9 | 0.07 | 0.11 | 0.11 | 89 | 1010.8 |
| 20260509130007 | 55 | 292 | 8.7 | 12.2 | 0.05 | 0.09 | 0.09 | 88 | 1010.4 |
| 20260509125507 | 55 | 278 | 4.3 | 7.8 | 0.03 | 0.07 | 0.07 | 88 | 1010.3 |
| 20260509125007 | 55 | 285 | 7.8 | 10.4 | 0.02 | 0.06 | 0.06 | 87 | 1010.0 |
| 20260509124507 | 56 | 290 | 6.1 | 12.2 | 0.00 | 0.05 | 0.04 | 86 | 1010.0 |
| 20260509124006 | 56 | 307 | 7.8 | 11.3 | 0.00 | 0.06 | 0.04 | 85 | 1009.9 |
| 20260509123507 | 57 | 308 | 8.7 | 10.4 | 0.00 | 0.08 | 0.04 | 83 | 1009.9 |
| 20260509122507 | 57 | 312 | 7.0 | 10.4 | 0.00 | 0.13 | 0.04 | 80 | 1009.7 |
| 20260509122006 | 58 | 302 | 7.8 | 12.2 | 0.00 | 0.13 | 0.04 | 80 | 1009.9 |
| 20260509121506 | 58 | 282 | 7.0 | 11.3 | 0.00 | 0.13 | 0.04 | 79 | 1009.9 |
| 20260509120506 | 59 | 276 | 2.6 | 10.4 | 0.00 | 0.13 | 0.04 | 76 | 1009.8 |
| 20260509115507 | 59 | 260 | 2.6 | 7.8 | 0.00 | 0.13 | 0.04 | 75 | 1009.7 |
| 20260509115007 | 59 | 272 | 4.3 | 8.7 | 0.00 | 0.13 | 0.04 | 74 | 1009.8 |
| 20260509114007 | 59 | 269 | 2.6 | 7.0 | 0.00 | 0.13 | 0.04 | 74 | 1009.8 |
| 20260509113506 | 59 | 222 | 4.3 | 10.4 | 0.00 | 0.13 | 0.04 | 72 | 1009.8 |
| 20260509113007 | 59 | 258 | 5.2 | 7.8 | 0.00 | 0.13 | 0.04 | 72 | 1009.8 |
| 20260509112006 | 59 | 236 | 4.3 | 8.7 | 0.01 | 0.13 | 0.04 | 73 | 1009.9 |
| 20260509111506 | 59 | 275 | 4.3 | 10.4 | 0.01 | 0.13 | 0.04 | 73 | 1009.8 |
| 20260509111006 | 60 | 248 | 5.2 | 10.4 | 0.01 | 0.13 | 0.04 | 74 | 1010.0 |
| 20260509110506 | 60 | 282 | 5.2 | 10.4 | 0.01 | 0.13 | 0.04 | 74 | 1010.0 |
| 20260509110007 | 60 | 264 | 2.6 | 10.4 | 0.01 | 0.14 | 0.04 | 75 | 1010.0 |
| 20260509105506 | 59 | 238 | 5.2 | 10.4 | 0.01 | 0.15 | 0.04 | 73 | 1010.1 |
| 20260509105006 | 59 | 239 | 4.3 | 8.7 | 0.01 | 0.16 | 0.04 | 72 | 1010.1 |
| 20260509104507 | 59 | 222 | 2.6 | 7.0 | 0.01 | 0.16 | 0.04 | 74 | 1010.1 |
| 20260509104006 | 59 | 204 | 6.1 | 8.7 | 0.01 | 0.17 | 0.04 | 70 | 1010.2 |
| 20260509103507 | 59 | 200 | 6.1 | 10.4 | 0.01 | 0.18 | 0.04 | 70 | 1010.2 |
| 20260509103007 | 59 | 201 | 5.2 | 10.4 | 0.01 | 0.18 | 0.04 | 72 | 1010.2 |
| 20260509102008 | 59 | 195 | 7.8 | 12.2 | 0.01 | 0.17 | 0.03 | 70 | 1010.2 |
| 20260509101508 | 59 | 172 | 5.2 | 10.4 | 0.03 | 0.17 | 0.03 | 70 | 1010.2 |
| 20260509101008 | 59 | 165 | 7.8 | 13.9 | 0.03 | 0.17 | 0.03 | 70 | 1010.1 |
| 20260509100508 | 59 | 175 | 6.1 | 13.0 | 0.03 | 0.17 | 0.03 | 74 | 1010.1 |
| 20260509100008 | 59 | 192 | 6.1 | 11.3 | 0.03 | 0.17 | 0.03 | 73 | 1010.1 |
| 20260509095508 | 59 | 168 | 5.2 | 11.3 | 0.03 | 0.17 | 0.03 | 77 | 1010.1 |
| 20260509095008 | 58 | 185 | 5.2 | 13.0 | 0.03 | 0.17 | 0.03 | 77 | 1010.0 |
| 20260509094508 | 57 | 174 | 4.3 | 7.8 | 0.03 | 0.17 | 0.03 | 80 | 1010.0 |
| 20260509094008 | 57 | 168 | 4.3 | 7.0 | 0.03 | 0.17 | 0.03 | 81 | 1010.1 |
| 20260509093508 | 56 | 191 | 4.3 | 10.4 | 0.03 | 0.17 | 0.03 | 82 | 1010.2 |
| 20260509093008 | 56 | 188 | 4.3 | 7.0 | 0.03 | 0.17 | 0.03 | 82 | 1010.4 |
| 20260509092508 | 56 | 177 | 4.3 | 7.8 | 0.03 | 0.17 | 0.03 | 81 | 1010.4 |
| 20260509092008 | 57 | 176 | 6.1 | 10.4 | 0.02 | 0.17 | 0.02 | 80 | 1010.4 |
| 20260509091508 | 57 | 163 | 7.8 | 14.8 | 0.00 | 0.14 | 0.00 | 77 | 1010.4 |
| 20260509091007 | 58 | 178 | 7.8 | 13.9 | 0.00 | 0.14 | 0.00 | 74 | 1010.3 |
| 20260509090509 | 58 | 171 | 7.8 | 12.2 | 0.00 | 0.14 | 0.00 | 74 | 1010.3 |
| 20260509090013 | 57 | 172 | 7.8 | 12.2 | 0.00 | 0.14 | 0.00 | 74 | 1010.3 |
| 20260509085508 | 57 | 181 | 7.8 | 13.9 | 0.00 | 0.14 | 0.00 | 74 | 1010.2 |
| 20260509084008 | 57 | 180 | 7.0 | 10.4 | 0.00 | 0.14 | 0.00 | 75 | 1010.2 |
| 20260509083508 | 57 | 169 | 6.1 | 12.2 | 0.00 | 0.14 | 0.00 | 76 | 1010.1 |
| 20260509083008 | 57 | 186 | 6.1 | 11.3 | 0.00 | 0.14 | 0.00 | 76 | 1010.2 |
| 20260509082008 | 56 | 161 | 5.2 | 11.3 | 0.00 | 0.14 | 0.00 | 77 | 1010.0 |
| 20260509081508 | 56 | 169 | 5.2 | 10.4 | 0.00 | 0.14 | 0.00 | 77 | 1010.2 |
| 20260509081008 | 56 | 152 | 5.2 | 10.4 | 0.00 | 0.14 | 0.00 | 78 | 1010.3 |
| 20260509080008 | 56 | 179 | 4.3 | 8.7 | 0.00 | 0.14 | 0.00 | 78 | 1010.5 |
| 20260509075507 | 55 | 175 | 5.2 | 8.7 | 0.00 | 0.14 | 0.00 | 79 | 1010.5 |
| 20260509074508 | 55 | 179 | 5.2 | 7.0 | 0.00 | 0.14 | 0.00 | 79 | 1010.5 |
| 20260509074007 | 55 | 166 | 4.3 | 7.0 | 0.00 | 0.14 | 0.00 | 80 | 1010.6 |
| 20260509072507 | 55 | 147 | 0.0 | 1.7 | 0.00 | 0.14 | 0.00 | 81 | 1010.3 |
| 20260509072008 | 55 | 153 | 0.0 | 0.0 | 0.00 | 0.14 | 0.00 | 81 | 1010.5 |
| 20260509071007 | 55 | 196 | 1.7 | 4.3 | 0.00 | 0.14 | 0.00 | 81 | 1010.5 |
| 20260509070508 | 55 | 226 | 2.6 | 6.1 | 0.00 | 0.14 | 0.00 | 81 | 1010.6 |
| 20260509070008 | 55 | 213 | 0.0 | 2.6 | 0.00 | 0.14 | 0.00 | 81 | 1010.6 |
| 20260509065508 | 54 | 204 | 2.6 | 6.1 | 0.00 | 0.14 | 0.00 | 81 | 1010.6 |
| 20260509065008 | 54 | 195 | 2.6 | 5.2 | 0.00 | 0.14 | 0.00 | 81 | 1010.6 |
| 20260509064508 | 54 | 180 | 0.9 | 5.2 | 0.00 | 0.14 | 0.00 | 82 | 1010.7 |
| 20260509063508 | 54 | 275 | 0.0 | 0.0 | 0.00 | 0.14 | 0.00 | 83 | 1010.5 |
| 20260509063008 | 54 | 284 | 0.0 | 0.0 | 0.00 | 0.14 | 0.00 | 82 | 1010.6 |
| 20260509062008 | 54 | 224 | 2.6 | 2.6 | 0.00 | 0.14 | 0.00 | 81 | 1010.5 |
| 20260509061508 | 54 | 173 | 1.7 | 5.2 | 0.00 | 0.14 | 0.00 | 80 | 1010.4 |
| 20260509060508 | 54 | 150 | 2.6 | 6.1 | 0.00 | 0.14 | 0.00 | 80 | 1010.3 |
| 20260509060008 | 54 | 155 | 3.5 | 7.0 | 0.00 | 0.14 | 0.00 | 80 | 1010.3 |
| 20260509055508 | 54 | 150 | 3.5 | 7.0 | 0.00 | 0.14 | 0.00 | 80 | 1010.3 |
| 20260509053508 | 54 | 151 | 5.2 | 10.4 | 0.00 | 0.14 | 0.00 | 81 | 1010.2 |
| 20260509053007 | 54 | 154 | 5.2 | 10.4 | 0.00 | 0.14 | 0.00 | 81 | 1010.2 |
| 20260509052008 | 54 | 164 | 2.6 | 6.1 | 0.00 | 0.14 | 0.00 | 81 | 1010.1 |
| 20260509051507 | 54 | 176 | 2.6 | 7.0 | 0.00 | 0.14 | 0.00 | 81 | 1009.9 |
| 20260509050507 | 54 | 164 | 3.5 | 7.0 | 0.00 | 0.14 | 0.00 | 82 | 1009.8 |
| 20260509050008 | 54 | 137 | 2.6 | 7.8 | 0.00 | 0.14 | 0.00 | 82 | 1009.7 |
| 20260509045508 | 54 | 143 | 3.5 | 6.1 | 0.00 | 0.14 | 0.00 | 82 | 1009.7 |
| 20260509045008 | 54 | 127 | 3.5 | 6.1 | 0.00 | 0.14 | 0.00 | 82 | 1009.6 |
| 20260509043508 | 54 | 107 | 1.7 | 4.3 | 0.00 | 0.14 | 0.00 | 82 | 1009.5 |
| 20260509043008 | 54 | 137 | 4.3 | 7.0 | 0.00 | 0.14 | 0.00 | 82 | 1009.5 |
| 20260509042008 | 54 | 131 | 7.0 | 12.2 | 0.00 | 0.14 | 0.00 | 83 | 1009.1 |
| 20260509041508 | 54 | 117 | 4.3 | 8.7 | 0.00 | 0.14 | 0.00 | 83 | 1009.3 |
| 20260509041007 | 54 | 161 | 4.3 | 8.7 | 0.00 | 0.14 | 0.00 | 83 | 1009.7 |
| 20260509040008 | 54 | 165 | 4.3 | 7.8 | 0.00 | 0.14 | 0.00 | 84 | 1009.9 |
| 20260509035507 | 54 | 150 | 4.3 | 7.8 | 0.00 | 0.14 | 0.00 | 84 | 1010.0 |
| 20260509035008 | 54 | 162 | 4.3 | 8.7 | 0.00 | 0.14 | 0.00 | 84 | 1010.1 |
| 20260509034008 | 54 | 163 | 4.3 | 7.0 | 0.00 | 0.14 | 0.00 | 84 | 1010.1 |
| 20260509033507 | 54 | 170 | 4.3 | 7.8 | 0.00 | 0.14 | 0.00 | 84 | 1010.2 |
| 20260509032007 | 54 | 190 | 4.3 | 6.1 | 0.00 | 0.14 | 0.00 | 84 | 1010.5 |
| 20260509031507 | 54 | 178 | 2.6 | 5.2 | 0.00 | 0.14 | 0.00 | 84 | 1010.4 |
| 20260509030008 | 54 | 155 | 2.6 | 4.3 | 0.00 | 0.14 | 0.00 | 84 | 1010.3 |
| 20260509025508 | 54 | 161 | 2.6 | 5.2 | 0.00 | 0.14 | 0.00 | 84 | 1010.4 |
| 20260509025007 | 54 | 146 | 1.7 | 2.6 | 0.00 | 0.14 | 0.00 | 84 | 1010.5 |
| 20260509024508 | 54 | 146 | 0.0 | 0.0 | 0.00 | 0.14 | 0.00 | 84 | 1010.5 |
| 20260509024008 | 54 | 146 | 0.0 | 0.0 | 0.00 | 0.14 | 0.00 | 84 | 1010.5 |
| 20260509023508 | 54 | 146 | 0.0 | 0.0 | 0.00 | 0.14 | 0.00 | 83 | 1010.4 |
| 20260509022008 | 54 | 145 | 2.6 | 5.2 | 0.00 | 0.14 | 0.00 | 83 | 1010.4 |
| 20260509021507 | 54 | 136 | 1.7 | 5.2 | 0.00 | 0.14 | 0.00 | 83 | 1010.5 |
| 20260509021007 | 55 | 144 | 2.6 | 6.1 | 0.00 | 0.14 | 0.00 | 83 | 1010.4 |
| 20260509020507 | 55 | 142 | 3.5 | 6.1 | 0.00 | 0.14 | 0.00 | 82 | 1010.4 |
| 20260509015507 | 55 | 149 | 4.3 | 10.4 | 0.00 | 0.14 | 0.00 | 82 | 1010.6 |
| 20260509015007 | 55 | 151 | 4.3 | 8.7 | 0.00 | 0.14 | 0.00 | 82 | 1010.6 |
| 20260509014507 | 55 | 154 | 5.2 | 8.7 | 0.00 | 0.14 | 0.00 | 82 | 1010.6 |
| 20260509013507 | 55 | 145 | 3.5 | 8.7 | 0.00 | 0.14 | 0.00 | 81 | 1010.6 |
| 20260509013008 | 55 | 145 | 4.3 | 7.8 | 0.00 | 0.14 | 0.00 | 81 | 1010.6 |
| 20260509012507 | 55 | 147 | 2.6 | 7.8 | 0.00 | 0.14 | 0.00 | 81 | 1010.6 |
| 20260509012007 | 55 | 146 | 6.1 | 11.3 | 0.00 | 0.14 | 0.00 | 81 | 1010.8 |
| 20260509011507 | 55 | 145 | 5.2 | 11.3 | 0.00 | 0.14 | 0.00 | 81 | 1010.8 |
| 20260509011007 | 55 | 153 | 4.3 | 7.8 | 0.00 | 0.14 | 0.00 | 81 | 1010.9 |
| 20260509010507 | 55 | 169 | 5.2 | 10.4 | 0.00 | 0.14 | 0.00 | 80 | 1011.0 |
| 20260509010008 | 56 | 138 | 3.5 | 10.4 | 0.00 | 0.14 | 0.00 | 80 | 1010.9 |
| 20260509005007 | 55 | 140 | 3.5 | 11.3 | 0.00 | 0.14 | 0.00 | 81 | 1010.9 |
| 20260509004507 | 55 | 166 | 3.5 | 10.4 | 0.00 | 0.14 | 0.00 | 81 | 1011.1 |
| 20260509004008 | 55 | 163 | 3.5 | 7.8 | 0.00 | 0.14 | 0.00 | 81 | 1011.1 |
| 20260509003508 | 55 | 157 | 2.6 | 7.0 | 0.00 | 0.14 | 0.00 | 81 | 1011.3 |
| 20260509001507 | 55 | 149 | 0.0 | 4.3 | 0.00 | 0.14 | 0.00 | 82 | 1011.3 |
| 20260509001007 | 55 | 125 | 2.6 | 5.2 | 0.00 | 0.14 | 0.00 | 83 | 1011.4 |
| 20260509000007 | 54 | 98 | 2.6 | 5.2 | 0.00 | 0.14 | 0.00 | 84 | 1011.4 |
| 20260508235509 | 54 | 98 | 2.6 | 5.2 | 0.00 | 0.14 | 0.00 | 85 | 1011.4 |
| 20260508235007 | 54 | 87 | 0.0 | 2.6 | 0.00 | 0.14 | 0.00 | 86 | 1011.4 |
| 20260508234007 | 53 | 34 | 0.0 | 0.0 | 0.00 | 0.14 | 0.00 | 88 | 1011.6 |
| 20260508233508 | 53 | 34 | 0.0 | 0.0 | 0.00 | 0.14 | 0.00 | 88 | 1011.4 |
| 20260508233008 | 53 | 31 | 0.9 | 2.6 | 0.00 | 0.14 | 0.00 | 89 | 1011.4 |
| 20260508232507 | 52 | 43 | 1.7 | 4.3 | 0.00 | 0.14 | 0.00 | 89 | 1011.4 |
| 20260508232007 | 52 | 355 | 2.6 | 6.1 | 0.00 | 0.14 | 0.00 | 89 | 1011.3 |
| 20260508231508 | 52 | 353 | 3.5 | 5.2 | 0.00 | 0.14 | 0.00 | 89 | 1011.3 |
| 20260508231007 | 52 | 348 | 3.5 | 5.2 | 0.00 | 0.14 | 0.00 | 89 | 1011.4 |
| 20260508230507 | 52 | 350 | 4.3 | 5.2 | 0.00 | 0.14 | 0.00 | 89 | 1011.4 |
| 20260508230007 | 52 | 345 | 2.6 | 4.3 | 0.00 | 0.14 | 0.00 | 88 | 1011.5 |
| 20260508225507 | 53 | 346 | 1.7 | 2.6 | 0.00 | 0.14 | 0.00 | 87 | 1011.5 |
| 20260508225007 | 53 | 46 | 0.9 | 2.6 | 0.00 | 0.14 | 0.00 | 87 | 1011.5 |
| 20260508224507 | 53 | 60 | 0.9 | 4.3 | 0.00 | 0.14 | 0.00 | 87 | 1011.6 |
| 20260508223507 | 53 | 41 | 1.7 | 5.2 | 0.00 | 0.14 | 0.00 | 87 | 1011.6 |
| 20260508222507 | 52 | 12 | 5.2 | 7.8 | 0.00 | 0.14 | 0.00 | 87 | 1011.5 |
| 20260508222007 | 52 | 3 | 5.2 | 8.7 | 0.00 | 0.14 | 0.00 | 87 | 1011.5 |
| 20260508221507 | 52 | 354 | 4.3 | 7.0 | 0.00 | 0.14 | 0.00 | 87 | 1011.5 |
| 20260508221007 | 53 | 348 | 4.3 | 7.8 | 0.00 | 0.14 | 0.00 | 87 | 1011.6 |
| 20260508220508 | 53 | 353 | 5.2 | 7.8 | 0.00 | 0.14 | 0.00 | 86 | 1011.6 |
| 20260508220008 | 53 | 359 | 4.3 | 7.8 | 0.00 | 0.14 | 0.00 | 86 | 1011.6 |
| 20260508215507 | 53 | 5 | 4.3 | 7.8 | 0.00 | 0.14 | 0.14 | 86 | 1011.6 |
| 20260508215007 | 53 | 358 | 5.2 | 7.0 | 0.00 | 0.14 | 0.14 | 87 | 1011.7 |
| 20260508214507 | 52 | 351 | 5.2 | 7.8 | 0.00 | 0.14 | 0.14 | 87 | 1011.8 |
| 20260508213508 | 52 | 351 | 4.3 | 5.2 | 0.00 | 0.14 | 0.14 | 88 | 1011.8 |
| 20260508213007 | 52 | 354 | 4.3 | 5.2 | 0.00 | 0.14 | 0.14 | 88 | 1011.8 |
| 20260508212507 | 52 | 352 | 3.5 | 5.2 | 0.00 | 0.14 | 0.14 | 88 | 1011.8 |
| 20260508212007 | 52 | 357 | 4.3 | 6.1 | 0.00 | 0.14 | 0.14 | 87 | 1011.8 |
| 20260508211507 | 52 | 8 | 3.5 | 5.2 | 0.00 | 0.14 | 0.14 | 87 | 1011.8 |
| 20260508211007 | 52 | 349 | 4.3 | 7.0 | 0.00 | 0.14 | 0.14 | 87 | 1011.7 |
| 20260508210507 | 52 | 352 | 2.6 | 4.3 | 0.00 | 0.14 | 0.14 | 86 | 1011.7 |
| 20260508205507 | 53 | 16 | 3.5 | 5.2 | 0.00 | 0.14 | 0.14 | 86 | 1011.6 |
| 20260508204507 | 53 | 7 | 2.6 | 4.3 | 0.00 | 0.14 | 0.14 | 85 | 1011.6 |
| 20260508203507 | 53 | 34 | 2.6 | 4.3 | 0.00 | 0.14 | 0.14 | 84 | 1011.6 |
| 20260508203008 | 53 | 22 | 2.6 | 4.3 | 0.00 | 0.14 | 0.14 | 84 | 1011.6 |
| 20260508202507 | 53 | 22 | 2.6 | 6.1 | 0.00 | 0.14 | 0.14 | 83 | 1011.6 |
| 20260508202007 | 53 | 6 | 4.3 | 6.1 | 0.00 | 0.14 | 0.14 | 82 | 1011.3 |
| 20260508201007 | 54 | 19 | 2.6 | 2.6 | 0.00 | 0.14 | 0.14 | 80 | 1011.3 |
| 20260508200507 | 54 | 19 | 1.7 | 4.3 | 0.00 | 0.14 | 0.14 | 80 | 1011.3 |
| 20260508200007 | 54 | 30 | 1.7 | 2.6 | 0.00 | 0.14 | 0.14 | 80 | 1011.3 |
| 20260508195507 | 54 | 34 | 1.7 | 4.3 | 0.00 | 0.14 | 0.14 | 80 | 1011.2 |
| 20260508195007 | 54 | 56 | 1.7 | 2.6 | 0.00 | 0.14 | 0.14 | 80 | 1011.2 |
| 20260508194507 | 55 | 25 | 1.7 | 2.6 | 0.00 | 0.14 | 0.14 | 79 | 1011.2 |
| 20260508194007 | 55 | 25 | 0.9 | 2.6 | 0.00 | 0.14 | 0.14 | 79 | 1011.2 |
| 20260508193507 | 55 | 28 | 1.7 | 2.6 | 0.00 | 0.14 | 0.14 | 79 | 1011.2 |
| 20260508193007 | 55 | 32 | 0.9 | 2.6 | 0.00 | 0.14 | 0.14 | 80 | 1011.1 |
| 20260508192507 | 55 | 20 | 0.9 | 2.6 | 0.00 | 0.14 | 0.14 | 79 | 1011.1 |
| 20260508192007 | 56 | 19 | 1.7 | 2.6 | 0.00 | 0.14 | 0.14 | 78 | 1010.9 |
| 20260508191507 | 57 | 19 | 1.7 | 2.6 | 0.00 | 0.14 | 0.14 | 76 | 1010.9 |
| 20260508190507 | 58 | 28 | 0.0 | 0.0 | 0.00 | 0.14 | 0.14 | 73 | 1010.7 |
| 20260508185507 | 59 | 28 | 0.9 | 1.7 | 0.00 | 0.14 | 0.14 | 70 | 1010.7 |
| 20260508185007 | 60 | 28 | 0.9 | 2.6 | 0.00 | 0.14 | 0.14 | 69 | 1010.7 |
| 20260508184508 | 60 | 22 | 0.9 | 2.6 | 0.00 | 0.14 | 0.14 | 68 | 1010.7 |
| 20260508184010 | 61 | 5 | 1.7 | 2.6 | 0.00 | 0.14 | 0.14 | 66 | 1010.6 |
| 20260508183507 | 61 | 5 | 1.7 | 2.6 | 0.00 | 0.14 | 0.14 | 65 | 1010.6 |
| 20260508183007 | 61 | 5 | 1.7 | 2.6 | 0.00 | 0.14 | 0.14 | 64 | 1010.5 |
| 20260508182507 | 61 | 5 | 1.7 | 2.6 | 0.00 | 0.14 | 0.14 | 63 | 1010.5 |
| 20260508181507 | 61 | 5 | 2.6 | 4.3 | 0.00 | 0.14 | 0.14 | 62 | 1010.4 |
| 20260508180007 | 61 | 346 | 2.6 | 4.3 | 0.00 | 0.14 | 0.14 | 62 | 1010.5 |
| 20260508175507 | 61 | 355 | 1.7 | 4.3 | 0.00 | 0.14 | 0.14 | 64 | 1010.5 |
| 20260508175007 | 61 | 12 | 3.5 | 6.1 | 0.00 | 0.14 | 0.14 | 64 | 1010.5 |
| 20260508174507 | 60 | 10 | 2.6 | 4.3 | 0.00 | 0.14 | 0.14 | 64 | 1010.6 |
| 20260508174006 | 60 | 10 | 2.6 | 6.1 | 0.00 | 0.14 | 0.14 | 65 | 1010.7 |
| 20260508173507 | 60 | 0 | 2.6 | 7.0 | 0.00 | 0.14 | 0.14 | 67 | 1010.7 |
| 20260508172007 | 61 | 352 | 6.1 | 8.7 | 0.00 | 0.14 | 0.14 | 67 | 1010.5 |
| 20260508171507 | 61 | 353 | 6.1 | 10.4 | 0.00 | 0.14 | 0.14 | 67 | 1010.6 |
| 20260508170507 | 62 | 355 | 3.5 | 5.2 | 0.00 | 0.14 | 0.14 | 64 | 1010.6 |
| 20260508170008 | 61 | 324 | 2.6 | 2.6 | 0.00 | 0.14 | 0.14 | 63 | 1010.6 |
| 20260508165507 | 61 | 292 | 3.5 | 6.1 | 0.00 | 0.14 | 0.14 | 63 | 1010.6 |
| 20260508165010 | 62 | 344 | 6.1 | 8.7 | 0.00 | 0.14 | 0.14 | 65 | 1010.6 |
| 20260508164507 | 61 | 315 | 5.2 | 10.4 | 0.00 | 0.14 | 0.14 | 67 | 1010.6 |
| 20260508164007 | 61 | 340 | 5.2 | 7.8 | 0.00 | 0.14 | 0.14 | 66 | 1010.7 |
| 20260508163507 | 61 | 301 | 4.3 | 7.8 | 0.00 | 0.14 | 0.14 | 64 | 1010.7 |
| 20260508163007 | 61 | 316 | 5.2 | 8.7 | 0.00 | 0.14 | 0.14 | 65 | 1010.8 |
| 20260508162507 | 61 | 321 | 5.2 | 8.7 | 0.00 | 0.14 | 0.14 | 68 | 1010.8 |
| 20260508161506 | 60 | 318 | 7.8 | 10.4 | 0.00 | 0.14 | 0.14 | 69 | 1010.8 |
| 20260508161006 | 60 | 341 | 8.7 | 12.2 | 0.00 | 0.14 | 0.14 | 71 | 1010.7 |
| 20260508160507 | 60 | 319 | 10.4 | 13.9 | 0.00 | 0.14 | 0.14 | 70 | 1010.8 |
| 20260508155506 | 61 | 291 | 10.4 | 14.8 | 0.00 | 0.15 | 0.14 | 72 | 1010.8 |
| 20260508154507 | 63 | 281 | 6.1 | 14.8 | 0.00 | 0.16 | 0.14 | 62 | 1010.9 |
| 20260508154006 | 63 | 228 | 5.2 | 10.4 | 0.00 | 0.17 | 0.14 | 60 | 1010.8 |
| 20260508153007 | 62 | 196 | 7.0 | 12.2 | 0.00 | 0.20 | 0.14 | 57 | 1010.8 |
| 20260508152507 | 62 | 216 | 7.8 | 13.0 | 0.00 | 0.20 | 0.14 | 58 | 1010.9 |
| 20260508152007 | 62 | 201 | 8.7 | 12.2 | 0.00 | 0.20 | 0.14 | 60 | 1010.8 |
| 20260508151507 | 62 | 197 | 6.1 | 10.4 | 0.00 | 0.21 | 0.14 | 61 | 1010.9 |
| 20260508151007 | 62 | 200 | 5.2 | 8.7 | 0.00 | 0.21 | 0.14 | 61 | 1010.9 |
| 20260508150507 | 61 | 212 | 5.2 | 8.7 | 0.00 | 0.21 | 0.14 | 62 | 1011.0 |
| 20260508145506 | 61 | 212 | 2.6 | 10.4 | 0.00 | 0.21 | 0.14 | 63 | 1011.0 |
| 20260508145006 | 61 | 180 | 4.3 | 8.7 | 0.00 | 0.21 | 0.14 | 62 | 1011.2 |
| 20260508144506 | 61 | 228 | 5.2 | 12.2 | 0.00 | 0.21 | 0.14 | 62 | 1011.2 |
| 20260508144006 | 61 | 168 | 4.3 | 10.4 | 0.00 | 0.21 | 0.14 | 63 | 1011.2 |